Tracking 22780 objects as of 11-Apr-2021
HD Live streaming from Space Station
objects crossing your sky now

WESTFORD NEEDLES

Track WESTFORD NEEDLES now!
10-day predictions
WESTFORD NEEDLES is classified as:


NORAD ID: 21660
Int'l Code: 1963-014FG
Perigee: 2,102.1 km
Apogee: 5,013.7 km
Inclination: 86.5 °
Period: 164.1 minutes
Semi major axis: 9928 km
RCS: 0.1099 m2 (medium)
Launch date: May 9, 1963
Source: United States (US)
Launch site: AIR FORCE WESTERN TEST RANGE (AFWTR)
aabbcc
Your satellite tracking list
Your tracking list is empty




NASA's NSSDC Master Catalog

Two Line Element Set (TLE):
1 21660U 63014FG  21099.45615269  .00001201  00000-0  16618+0 0  9993
2 21660  86.5314 152.2434 1466224 320.1899  39.7250  8.77505030901621
Source of the keplerian elements: AFSPC